Weather History for KCWI - October, 2014

Change the Weather History Date:

Tuesday, October 14, 2014

  Actual Average Record
Temperature  
Mean Temperature 56 °F -  
Max Temperature 62 °F 66 °F 83 °F (1962)
Min Temperature 51 °F 44 °F 26 °F (2006)
Degree Days  
Heating Degree Days 8    
Growing Degree Days 6 (Base 50)    
Moisture  
Dew Point 52 °F    
Average Humidity 87    
Maximum Humidity 94    
Minimum Humidity 82    
Precipitation  
Precipitation 0.89 in - - ()
Sea Level Pressure  
Sea Level Pressure 29.55 in    
Wind  
Wind Speed 11 mph (NNE)    
Max Wind Speed 23 mph    
Max Gust Speed 28 mph    
Visibility 9 miles    
Events      
Averages and records for this station are not official NWS values.
T = Trace of Precipitation, MM = Missing Value Source: NWS Daily Summary

Daily Weather History Graph

Daily Weather History Graph

Search for Another Location

Airport or City:

Trip Planner

Search our weather history database for the weather conditions in past years. The results will help you decide how hot, cold, wet, or windy it might be!

Date:

Astronomy

Oct. 14, 2014 Rise Set
Actual Time 7:12 AM CDT 6:21 PM CDT
Civil Twilight 6:44 AM CDT 6:49 PM CDT
Nautical Twilight 6:12 AM CDT 7:21 PM CDT
Astronomical Twilight 5:39 AM CDT 7:53 PM CDT
Moon 11:24 PM CDT (10/14) 1:15 PM CDT (10/14)
Length of Visible Light 12h 04m
Length of Day
11h 08m
Waning Gibbous, 61% of the Moon is Illuminated
Oct 14
Waning Gibbous
Oct 15
Last Quarter
Oct 23
New
Oct 30
First Quarter
Nov 6
Full

Hourly Weather History & Observations

Time (CDT) Temp. Dew Point Humidity Pressure Visibility Wind Dir Wind Speed Gust Speed Precip Events Conditions
12:15 AM 62.6 °F 57.2 °F 82% 29.45 in 10.0 mi SSE 10.4 mph - N/A   Overcast
12:35 AM 62.6 °F 57.2 °F 82% 29.45 in 10.0 mi SSE 10.4 mph - N/A   Overcast
12:55 AM 60.8 °F 57.2 °F 88% 29.45 in 10.0 mi SSE 10.4 mph - N/A   Overcast
1:15 AM 62.6 °F 57.2 °F 82% 29.45 in 10.0 mi South 6.9 mph - N/A   Overcast
1:35 AM 60.8 °F 57.2 °F 88% 29.45 in 10.0 mi SSE 9.2 mph - N/A   Overcast
1:55 AM 60.8 °F 57.2 °F 88% 29.46 in 10.0 mi South 9.2 mph - N/A   Overcast
2:15 AM 62.6 °F 57.2 °F 82% 29.46 in 10.0 mi SSE 8.1 mph - N/A   Overcast
2:35 AM 60.8 °F 57.2 °F 88% 29.46 in 10.0 mi SSE 10.4 mph - N/A   Overcast
2:55 AM 60.8 °F 57.2 °F 88% 29.46 in 10.0 mi SSE 10.4 mph - N/A   Overcast
3:15 AM 60.8 °F 57.2 °F 88% 29.45 in 10.0 mi SSE 9.2 mph - N/A   Overcast
3:35 AM 60.8 °F 57.2 °F 88% 29.46 in 10.0 mi SSE 8.1 mph - N/A   Overcast
3:55 AM 60.8 °F 57.2 °F 88% 29.46 in 10.0 mi SE 5.8 mph - N/A   Overcast
4:15 AM 60.8 °F 57.2 °F 88% 29.46 in 10.0 mi SSE 5.8 mph - N/A   Overcast
4:35 AM 60.8 °F 57.2 °F 88% 29.47 in 10.0 mi SSE 6.9 mph - N/A   Overcast
4:55 AM 60.8 °F 57.2 °F 88% 29.47 in 10.0 mi SSE 8.1 mph - N/A   Overcast
5:15 AM 60.8 °F 57.2 °F 88% 29.48 in 10.0 mi SSE 8.1 mph - N/A   Overcast
5:35 AM 60.8 °F 57.2 °F 88% 29.47 in 10.0 mi SE 6.9 mph - N/A   Overcast
5:55 AM 59.0 °F 57.2 °F 94% 29.47 in 10.0 mi SE 8.1 mph - N/A   Mostly Cloudy
6:15 AM 59.0 °F 55.4 °F 88% 29.47 in 10.0 mi ESE 6.9 mph - N/A   Overcast
6:35 AM 57.2 °F 55.4 °F 94% 29.47 in 10.0 mi East 5.8 mph - N/A   Overcast
6:55 AM 57.2 °F 53.6 °F 88% 29.47 in 9.0 mi ENE 3.5 mph - N/A   Mostly Cloudy
7:15 AM 57.2 °F 53.6 °F 88% 29.47 in 4.0 mi East 5.8 mph - N/A   Scattered Clouds
7:35 AM 57.2 °F 53.6 °F 88% 29.47 in 3.0 mi NE 4.6 mph - N/A   Overcast
7:55 AM 55.4 °F 53.6 °F 94% 29.47 in 4.0 mi ENE 4.6 mph - N/A   Overcast
8:15 AM 57.2 °F 55.4 °F 94% 29.48 in 3.0 mi ENE 5.8 mph - N/A   Overcast
8:35 AM 57.2 °F 55.4 °F 94% 29.48 in 3.0 mi ENE 5.8 mph - N/A   Overcast
8:55 AM 59.0 °F 55.4 °F 88% 29.49 in 3.0 mi ENE 5.8 mph - N/A   Overcast
9:15 AM 57.2 °F 55.4 °F 94% 29.49 in 3.0 mi NNE 5.8 mph - N/A   Overcast
9:35 AM 57.2 °F 53.6 °F 88% 29.49 in 3.0 mi NNW 9.2 mph - 0.21 in   Overcast
9:55 AM 55.4 °F 53.6 °F 94% 29.49 in 5.0 mi North 12.7 mph - 0.29 in   Overcast
10:15 AM 55.4 °F 53.6 °F 94% 29.49 in 2.5 mi North 9.2 mph - 0.02 in   Overcast
10:35 AM 55.4 °F 53.6 °F 94% 29.49 in 9.0 mi North 11.5 mph - 0.04 in   Overcast
10:55 AM 55.4 °F 51.8 °F 88% 29.49 in 6.0 mi North 12.7 mph 19.6 mph 0.16 in   Overcast
11:15 AM 55.4 °F 51.8 °F 88% 29.50 in 9.0 mi North 13.8 mph 18.4 mph 0.13 in   Overcast
11:35 AM 55.4 °F 51.8 °F 88% 29.51 in 9.0 mi North 13.8 mph 20.7 mph 0.24 in   Overcast
11:55 AM 53.6 °F 51.8 °F 94% 29.51 in 8.0 mi North 13.8 mph - 0.33 in   Overcast
12:15 PM 55.4 °F 51.8 °F 88% 29.51 in 9.0 mi North 15.0 mph 20.7 mph 0.04 in   Overcast
12:35 PM 55.4 °F 51.8 °F 88% 29.52 in 10.0 mi North 16.1 mph 21.9 mph 0.07 in   Overcast
12:55 PM 53.6 °F 51.8 °F 94% 29.52 in 10.0 mi North 17.3 mph 23.0 mph 0.08 in   Overcast
1:15 PM 55.4 °F 51.8 °F 88% 29.52 in 10.0 mi North 18.4 mph - N/A   Overcast
1:35 PM 53.6 °F 51.8 °F 94% 29.52 in 10.0 mi North 17.3 mph 24.2 mph 0.01 in   Overcast
1:55 PM 55.4 °F 51.8 °F 88% 29.53 in 10.0 mi North 20.7 mph 25.3 mph 0.01 in   Overcast
2:15 PM 55.4 °F 51.8 °F 88% 29.54 in 10.0 mi North 17.3 mph 24.2 mph N/A   Overcast
2:35 PM 55.4 °F 50.0 °F 82% 29.54 in 10.0 mi North 16.1 mph 25.3 mph 0.01 in   Overcast
2:55 PM 53.6 °F 50.0 °F 88% 29.55 in 10.0 mi North 16.1 mph 25.3 mph 0.01 in   Overcast
3:15 PM 53.6 °F 48.2 °F 82% 29.56 in 10.0 mi North 18.4 mph 24.2 mph N/A   Overcast
3:35 PM 53.6 °F 48.2 °F 82% 29.57 in 10.0 mi North 16.1 mph 20.7 mph N/A   Overcast
3:55 PM 53.6 °F 48.2 °F 82% 29.58 in 10.0 mi North 16.1 mph 24.2 mph N/A   Overcast
4:15 PM 53.6 °F 48.2 °F 82% 29.59 in 10.0 mi North 19.6 mph 26.5 mph N/A   Overcast
4:35 PM 53.6 °F 48.2 °F 82% 29.60 in 10.0 mi North 15.0 mph 23.0 mph N/A   Overcast
4:55 PM 53.6 °F 48.2 °F 82% 29.61 in 10.0 mi North 15.0 mph 23.0 mph N/A   Overcast
5:15 PM 51.8 °F 48.2 °F 88% 29.62 in 10.0 mi North 16.1 mph 21.9 mph N/A   Overcast
5:35 PM 51.8 °F 48.2 °F 88% 29.63 in 5.0 mi North 18.4 mph 25.3 mph N/A   Overcast
5:55 PM 51.8 °F 48.2 °F 88% 29.63 in 2.0 mi North 18.4 mph 23.0 mph N/A   Overcast
6:15 PM 51.8 °F 48.2 °F 88% 29.64 in 4.0 mi North 19.6 mph 24.2 mph N/A   Overcast
6:35 PM 51.8 °F 48.2 °F 88% 29.65 in 8.0 mi North 17.3 mph 24.2 mph N/A   Overcast
6:55 PM 53.6 °F 48.2 °F 82% 29.66 in 10.0 mi North 17.3 mph 25.3 mph N/A   Overcast
7:15 PM 53.6 °F 48.2 °F 82% 29.67 in 10.0 mi North 19.6 mph 23.0 mph N/A   Overcast
7:35 PM 51.8 °F 48.2 °F 88% 29.68 in 10.0 mi North 17.3 mph 21.9 mph N/A   Overcast
7:55 PM 53.6 °F 48.2 °F 82% 29.69 in 10.0 mi North 20.7 mph 26.5 mph N/A   Overcast
8:15 PM 53.6 °F 48.2 °F 82% 29.70 in 10.0 mi North 20.7 mph 26.5 mph N/A   Overcast
8:35 PM 53.6 °F 48.2 °F 82% 29.71 in 10.0 mi North 17.3 mph 27.6 mph N/A   Overcast
8:55 PM 53.6 °F 48.2 °F 82% 29.71 in 10.0 mi North 23.0 mph 27.6 mph N/A   Overcast
9:15 PM 51.8 °F 48.2 °F 88% 29.72 in 9.0 mi North 19.6 mph 27.6 mph N/A   Overcast
9:35 PM 51.8 °F 48.2 °F 88% 29.73 in 8.0 mi North 17.3 mph 26.5 mph 0.01 in   Overcast
9:55 PM 51.8 °F 48.2 °F 88% 29.73 in 10.0 mi North 17.3 mph 27.6 mph 0.01 in   Overcast
10:15 PM 51.8 °F 46.4 °F 82% 29.73 in 10.0 mi North 17.3 mph - N/A   Overcast
10:35 PM 51.8 °F 46.4 °F 82% 29.74 in 10.0 mi North 17.3 mph 23.0 mph N/A   Overcast
10:55 PM 51.8 °F 46.4 °F 82% 29.75 in 10.0 mi North 13.8 mph - N/A   Overcast
11:15 PM 51.8 °F 46.4 °F 82% 29.75 in 10.0 mi North 13.8 mph 19.6 mph N/A   Overcast
11:35 PM 51.8 °F 46.4 °F 82% 29.76 in 10.0 mi North 12.7 mph - N/A   Overcast
11:55 PM 51.8 °F 46.4 °F 82% 29.76 in 10.0 mi North 12.7 mph - N/A   Overcast